Dewpoint
13 14 14 14 14 13 12 14 14 14 13 13 13 12 10 12 12 11 11 10 10 7 4 7 6 5 4 8 9 9 9 9 9 9 8 8 7 7 7 8 8 7 7
12 13 13 13 14 13 13 13 12 14 13 13 12 11 10 11 11 12 11 11 10 11 8 3 2 3 4 6 9 9 9 9 9 9 9 9 8 8 7 7 7 8 6
8 10 12 13 13 13 13 13 13 13 13 13 12 10 11 11 11 10 11 11 10 10 11 9 3 4 3 5 9 8 8 9 9 9 9 9 8 8 7 6 7 7 7
5 7 9 11 12 13 13 12 13 12 13 12 11 10 10 10 8 8 11 10 11 10 11 11 10 5 4 4 5 5 6 7 7 7 8 8 8 8 8 7 7 7 7
2 3 5 9 9 11 12 12 12 12 12 13 11 10 9 8 8 9 9 11 9 10 11 11 12 11 9 5 6 6 6 8 7 8 7 7 7 7 8 8 8 6 6
-2 -0 2 5 7 8 10 11 11 12 12 12 12 11 10 11 11 10 9 11 10 10 11 11 11 11 11 10 7 7 7 9 8 8 8 8 8 8 8 8 8 7 8
-4 -2 -1 2 4 6 8 9 10 11 12 12 12 12 11 11 11 11 10 10 10 11 10 11 11 11 11 10 9 9 8 9 10 9 8 8 8 9 9 9 8 8 8
-6 -5 -4 -1 0 3 5 6 8 11 12 12 12 12 12 11 11 12 11 11 10 10 10 10 10 10 10 10 10 11 10 10 10 10 10 9 9 9 9 8 8 9 8
-8 -7 -6 -4 -2 0 2 3 7 9 10 11 11 11 11 10 11 11 11 11 10 9 9 10 10 10 10 10 10 10 10 9 8 8 9 9 9 9 9 8 7 7 7
-9 -8 -7 -7 -4 -2 -0 1 4 5 7 8 10 10 11 10 9 9 10 10 10 9 9 8 8 8 7 8 8 9 9 9 10 7 6 5 8 9 9 8 7 8 7
-10 -9 -8 -7 -7 -4 -2 -0 2 3 3 6 8 9 10 10 10 10 10 9 9 9 9 9 9 8 8 9 8 8 8 9 10 9 7 5 7 9 9 7 7 8 7
-10 -10 -9 -8 -7 -6 -4 -2 -1 -0 2 1 5 7 7 9 9 9 9 9 9 8 8 7 6 5 4 4 4 6 8 8 9 9 9 7 6 8 7 7 7 8 7
-10 -10 -10 -9 -9 -8 -7 -4 -3 -2 1 2 1 4 5 6 5 6 5 5 5 4 4 4 4 4 4 5 6 5 6 8 8 8 8 8 8 8 8 8 8 7 6
-11 -11 -11 -10 -10 -9 -7 -7 -5 -5 -2 -1 -0 3 2 3 4 3 2 2 1 1 0 1 3 5 6 8 9 9 5 5 5 5 6 7 7 7 8 7 7 7 7
-11 -11 -12 -12 -11 -9 -8 -8 -7 -5 -4 -2 -1 0 2 2 3 2 2 2 2 3 3 3 2 3 6 8 8 8 7 4 5 5 5 6 6 7 7 7 7 6 7
-11 -11 -12 -12 -12 -11 -11 -8 -8 -6 -5 -4 -2 -1 0 1 2 2 3 3 3 4 4 4 4 4 3 6 7 8 7 6 4 5 6 6 5 5 4 5 4 5 6
-12 -12 -12 -12 -12 -12 -12 -11 -9 -7 -7 -6 -4 -4 -1 0 -1 1 2 3 3 3 4 4 4 5 6 6 6 7 6 4 4 5 6 6 6 6 5 5 5 4 4
-13 -13 -13 -13 -13 -13 -12 -12 -11 -9 -8 -8 -6 -5 -4 -3 -3 -1 1 2 2 3 3 3 3 4 4 4 4 5 5 5 5 5 7 7 7 7 7 6 5 5 4
-14 -14 -14 -13 -13 -13 -13 -13 -13 -12 -10 -8 -8 -6 -5 -5 -6 -5 -1 0 1 2 2 2 3 3 4 4 4 5 5 6 6 7 6 7 7 7 7 6 5 5 5
-16 -15 -14 -14 -16 -16 -14 -14 -13 -14 -14 -12 -11 -8 -10 -6 -6 -5 -8 -5 -1 0 1 1 2 2 3 4 4 4 4 5 5 5 6 6 7 7 7 7 6 6 5
-17 -16 -16 -16 -16 -20 -21 -16 -16 -16 -15 -17 -17 -16 -14 -14 -13 -8 -10 -8 -8 -6 -1 0 0 1 2 2 3 4 5 5 5 5 4 5 5 5 6 6 6 6 6
-17 -17 -16 -17 -18 -22 -24 -20 -18 -21 -21 -19 -17 -17 -17 -16 -15 -15 -13 -11 -9 -7 -7 -4 -0 0 1 1 2 2 3 4 4 5 5 4 5 5 6 6 6 5 5
-16 -16 -16 -17 -18 -20 -24 -24 -24 -23 -23 -23 -21 -19 -17 -16 -16 -16 -15 -14 -13 -11 -8 -6 -6 -2 -0 0 1 1 1 2 2 3 3 4 3 4 4 4 5 4 5
-18 -18 -18 -18 -18 -20 -21 -22 -25 -26 -25 -23 -21 -22 -20 -16 -17 -16 -16 -16 -14 -12 -11 -9 -8 -6 -6 -2 -1 -1 0 1 1 1 1 2 3 3 3 3 4 4 5
-17 -17 -18 -18 -18 -19 -20 -20 -21 -22 -24 -24 -21 -21 -19 -19 -17 -16 -16 -15 -14 -14 -13 -12 -10 -9 -8 -6 -5 -3 -1 -1 -0 1 1 2 2 2 1 1 2 2 4
-17 -16 -16 -17 -17 -18 -18 -19 -20 -20 -21 -22 -19 -18 -19 -22 -17 -17 -16 -13 -14 -15 -14 -13 -11 -11 -10 -9 -8 -7 -5 -4 -1 -0 -0 1 1 1 2 2 3 3 4
Wind_Speed
29 33 38 47 46 43 47 44 44 48 45 40 38 35 34 31 29 27 24 22 20 20 21 21 20 19 19 19 16 15 15 12 11 10 7 6 6 6 6 5 3 5 6
27 30 38 40 47 45 45 47 46 49 44 42 39 37 35 32 29 28 26 24 22 20 20 20 21 19 20 20 18 16 18 14 12 8 7 4 3 2 4 5 4 2 4
20 26 34 38 41 45 46 45 49 47 46 43 41 37 33 31 29 29 29 28 25 24 20 19 19 20 19 21 20 18 17 16 15 9 6 3 4 5 2 3 4 4 6
16 20 24 33 36 45 44 44 43 43 45 43 41 39 38 37 35 33 33 31 28 25 23 19 18 17 19 19 17 15 13 10 12 12 11 10 6 2 2 2 3 1 4
10 12 17 23 27 36 43 41 43 44 41 42 40 38 36 34 34 34 33 32 31 28 26 23 21 20 19 18 16 16 16 14 11 11 11 10 5 5 3 2 4 5 6
9 9 10 17 20 23 33 36 41 44 44 41 39 38 36 36 34 34 34 34 33 31 29 27 24 22 20 18 17 17 17 18 14 14 11 10 6 4 4 4 6 7 6
11 10 11 15 16 19 25 27 34 41 39 39 38 36 35 32 32 33 34 35 33 32 32 29 26 25 23 21 21 21 21 19 16 16 15 13 12 8 7 7 7 7 7
12 11 11 15 12 17 20 22 29 36 36 37 35 32 34 32 29 25 27 30 30 28 24 25 24 23 22 24 23 23 21 22 19 19 19 18 17 13 12 11 10 10 9
14 13 9 14 12 13 15 17 26 30 32 34 34 32 30 28 30 28 24 22 25 24 23 22 21 22 22 22 20 20 22 23 21 22 22 20 22 20 17 16 14 13 13
15 13 13 10 12 12 13 16 22 25 28 29 31 32 33 31 29 26 25 26 26 24 23 23 23 22 21 23 23 23 22 21 21 23 23 22 20 25 21 20 20 19 18
17 16 15 12 10 13 11 14 20 20 24 27 29 28 28 29 30 30 29 27 25 24 25 25 25 25 24 24 25 27 27 25 23 23 24 23 21 25 25 24 22 22 21
17 17 15 13 17 11 13 12 13 14 21 19 26 27 27 31 29 28 28 28 27 27 27 26 26 25 25 26 27 29 29 28 26 25 25 25 24 24 26 25 25 22 23
19 18 16 16 14 12 10 13 8 9 13 18 14 23 21 24 24 27 26 27 26 26 27 28 29 27 25 24 23 28 28 26 28 27 26 27 26 26 27 26 27 27 26
19 19 19 18 17 10 16 11 10 5 14 12 14 21 18 21 23 25 24 24 24 25 25 26 26 26 25 23 21 21 26 27 25 25 25 25 26 26 26 28 29 26 26
19 19 19 18 13 18 16 9 13 8 8 9 7 12 15 17 15 20 21 21 21 21 22 23 23 25 24 24 23 24 27 24 23 23 24 25 26 27 27 28 28 28 27
17 17 18 18 19 19 14 16 11 12 7 5 7 8 8 10 10 12 18 18 17 17 18 18 19 21 22 23 24 23 26 25 23 23 23 24 24 23 21 21 21 23 25
15 16 16 16 17 18 17 15 12 10 6 6 6 3 8 6 8 10 13 14 15 14 14 16 18 18 22 23 25 27 26 26 25 24 24 25 27 24 24 22 21 21 24
12 12 13 14 13 13 13 13 13 12 10 7 4 2 5 4 6 8 11 13 15 15 15 16 15 16 18 23 26 27 26 26 26 25 23 24 25 22 23 24 23 22 21
11 11 11 12 12 12 12 12 13 12 10 8 8 6 0 4 3 5 9 12 13 14 16 17 17 16 17 19 20 21 23 24 24 24 24 20 22 21 25 24 25 26 27
8 10 12 10 10 11 11 10 10 9 9 8 7 5 5 5 6 5 8 9 12 13 14 14 14 14 14 19 21 22 23 23 24 23 23 23 23 23 24 27 29 29 28
8 9 8 9 10 11 10 9 9 9 9 9 8 6 5 5 5 7 8 9 10 11 12 14 13 13 15 16 20 21 21 22 25 26 27 26 27 28 28 27 28 30 29
7 7 6 7 9 10 11 9 9 10 10 9 8 7 7 6 7 7 7 9 10 10 10 11 13 16 18 19 19 19 21 22 23 26 28 28 27 30 29 32 32 32 31
8 8 7 8 7 9 9 10 10 10 10 9 9 9 7 7 8 8 8 8 8 10 11 12 13 15 17 19 20 21 23 23 22 22 25 27 30 32 30 32 32 32 27
6 7 7 7 8 8 9 10 10 10 10 10 9 9 8 8 7 7 8 7 8 9 12 13 15 17 16 18 20 22 22 23 24 24 23 25 29 30 31 33 33 33 29
6 6 7 7 8 9 9 10 10 10 9 9 9 9 9 9 7 7 7 8 8 11 12 13 15 16 17 19 21 24 24 23 22 24 26 26 26 25 26 32 32 31 29
8 8 9 9 9 10 10 10 10 11 10 9 8 8 10 9 9 8 6 7 10 9 10 12 14 17 19 22 24 25 29 29 28 26 26 25 23 23 25 26 27 26 24
Wind_Direction
188 189 184 197 194 196 197 197 189 192 193 192 190 187 188 187 187 185 182 176 174 174 173 173 171 170 165 169 162 162 161 160 154 138 122 109 106 106 115 114 98 44 59
187 176 177 185 196 198 196 199 197 199 195 192 193 191 190 189 191 188 185 184 183 181 179 178 176 173 169 170 167 171 161 169 162 143 124 129 72 110 88 96 93 85 36
172 172 172 181 181 191 199 197 201 201 195 193 193 192 189 191 191 194 191 190 191 191 187 185 184 175 175 173 171 177 173 175 173 170 165 141 119 129 60 98 53 40 30
164 166 168 178 175 185 193 196 197 199 194 197 193 193 193 192 196 196 197 193 193 191 194 191 189 188 184 182 186 183 188 201 202 197 173 154 140 118 152 318 338 1 344
139 150 158 170 173 178 189 195 195 196 190 195 197 196 198 197 195 199 198 198 197 192 197 199 197 189 197 196 190 200 208 213 213 215 214 218 209 208 197 277 307 308 311
109 122 138 164 160 170 181 187 190 189 191 193 197 198 197 196 197 199 199 199 201 200 203 205 204 202 194 197 204 209 214 214 225 218 228 221 224 259 230 245 259 265 282
82 90 107 136 151 162 166 174 180 185 183 189 197 199 202 205 207 206 203 200 204 207 208 209 209 208 208 208 214 217 220 222 232 229 234 236 239 225 226 229 253 259 280
69 79 81 110 128 145 156 162 166 171 179 188 189 186 196 200 196 195 201 201 204 208 209 213 216 216 219 220 221 226 229 232 237 242 243 249 245 236 247 255 257 262 278
55 58 69 83 104 128 143 149 156 163 172 177 186 191 188 191 195 184 177 190 197 202 198 202 205 212 218 223 226 225 226 234 242 247 250 250 249 247 251 258 262 262 266
52 52 66 60 88 114 131 140 150 154 162 169 171 176 185 182 185 191 189 187 191 199 202 203 209 214 220 224 231 234 235 238 244 246 247 252 258 236 246 256 261 261 263
45 47 55 63 73 97 117 130 143 149 156 161 167 167 173 181 183 186 191 197 201 202 206 211 217 222 224 230 235 237 240 241 236 246 248 252 248 243 247 254 257 259 261
46 46 46 55 47 73 93 113 136 144 152 152 157 166 175 181 189 194 198 204 210 217 221 224 226 228 232 237 238 237 238 239 235 235 249 250 248 244 247 254 258 259 265
40 42 41 46 28 45 65 89 113 124 147 150 158 165 176 180 195 196 200 207 213 221 226 230 232 234 232 232 233 235 233 236 237 242 242 249 247 247 247 249 258 264 266
37 36 33 35 25 29 53 48 78 116 125 156 141 159 170 173 196 200 205 212 217 222 225 228 225 226 226 227 228 240 239 238 240 242 242 240 241 243 249 254 257 264 263
32 29 26 30 14 33 40 15 46 67 88 119 127 147 170 177 197 202 208 213 217 219 222 225 226 228 226 226 228 229 241 241 241 246 247 245 243 244 247 253 260 259 253
22 22 22 17 20 31 17 28 11 49 58 85 130 128 161 164 179 196 206 209 212 217 221 224 228 231 234 229 229 225 240 240 242 244 246 249 247 245 243 246 256 261 259
13 14 15 17 14 12 16 22 18 41 32 46 89 129 154 171 201 187 195 200 208 213 222 227 226 223 219 222 225 230 235 240 242 242 240 246 250 246 247 247 248 258 266
3 4 3 6 12 12 11 13 13 18 29 11 55 128 137 161 227 196 200 204 205 209 216 225 231 237 238 238 237 235 236 240 242 244 244 243 246 247 247 249 248 250 258
349 355 356 357 1 4 9 15 13 14 10 360 5 13 23 226 219 231 216 220 218 218 222 225 230 237 238 241 242 243 240 242 243 243 242 246 246 247 249 245 251 259 261
343 346 351 355 356 357 5 9 14 10 6 4 355 344 340 304 277 247 247 232 232 227 226 229 232 232 242 244 242 242 239 242 244 245 244 244 242 244 241 249 257 258 260
333 341 348 347 345 347 358 0 2 357 355 360 359 351 327 301 289 272 269 251 246 241 236 235 238 245 241 247 242 242 239 241 242 245 247 251 255 259 251 250 257 264 270
331 337 350 341 334 337 350 350 346 345 347 348 347 345 339 329 308 293 282 269 262 254 249 243 238 237 240 251 254 250 246 247 248 248 247 246 248 252 251 252 256 261 268
331 332 339 339 342 339 344 341 337 338 340 342 342 337 332 328 323 312 301 291 277 262 252 247 245 241 240 243 252 257 255 254 256 257 256 255 251 251 257 259 262 267 267
328 330 331 336 340 338 338 340 339 337 337 336 335 335 338 325 317 316 311 298 282 270 259 252 251 249 247 243 248 248 251 255 253 256 261 263 258 256 258 260 263 261 264
329 331 334 338 337 336 333 333 336 334 332 332 332 332 336 327 326 313 306 298 284 274 274 270 263 260 255 248 248 249 250 252 254 258 257 258 260 262 270 274 271 267 268
310 313 318 321 324 326 327 323 326 327 325 325 325 334 330 332 327 317 311 316 306 290 285 277 271 267 267 266 264 262 257 253 251 256 259 257 257 261 264 266 265 258 262
Height
1449 1455 1460 1466 1472 1478 1484 1490 1497 1503 1509 1516 1522 1528 1533 1540 1544 1549 1553 1558 1562 1565 1568 1572 1575 1578 1582 1586 1590 1593 1596 1600 1601 1602 1604 1606 1607 1608 1608 1610 1611 1610 1609
1448 1451 1456 1463 1468 1475 1481 1488 1494 1499 1506 1512 1519 1526 1531 1537 1542 1547 1552 1557 1561 1565 1568 1571 1574 1577 1581 1585 1589 1592 1595 1599 1601 1604 1606 1607 1609 1609 1609 1610 1611 1611 1611
1446 1449 1452 1458 1463 1471 1478 1483 1491 1497 1503 1510 1516 1523 1530 1536 1541 1546 1550 1554 1559 1564 1567 1571 1574 1577 1581 1584 1588 1591 1594 1597 1600 1604 1606 1607 1608 1609 1610 1610 1611 1611 1611
1445 1447 1451 1456 1459 1466 1475 1481 1487 1494 1500 1505 1512 1517 1523 1529 1535 1542 1547 1552 1557 1562 1566 1570 1573 1577 1580 1583 1587 1590 1594 1597 1599 1601 1603 1605 1607 1609 1610 1611 1611 1611 1611
1446 1448 1450 1452 1458 1463 1470 1478 1483 1490 1496 1502 1510 1515 1521 1527 1533 1539 1545 1550 1554 1559 1564 1568 1572 1575 1579 1582 1586 1589 1593 1595 1598 1600 1602 1604 1606 1608 1609 1610 1610 1610 1610
1450 1450 1452 1455 1456 1461 1467 1473 1479 1486 1492 1498 1506 1513 1519 1524 1529 1535 1541 1546 1551 1556 1560 1565 1569 1573 1577 1580 1584 1587 1591 1593 1596 1598 1601 1603 1605 1607 1608 1609 1610 1610 1609
1453 1453 1452 1454 1458 1462 1465 1471 1476 1480 1488 1496 1503 1510 1516 1522 1526 1532 1537 1542 1548 1552 1557 1561 1566 1570 1574 1578 1581 1585 1588 1591 1593 1596 1598 1600 1603 1605 1606 1607 1609 1609 1609
1458 1458 1456 1454 1461 1462 1465 1471 1474 1477 1485 1492 1499 1505 1512 1517 1524 1529 1534 1539 1545 1550 1555 1560 1564 1568 1572 1575 1578 1582 1585 1588 1590 1593 1595 1597 1599 1602 1603 1604 1606 1607 1607
1461 1460 1464 1455 1459 1464 1468 1466 1468 1474 1483 1490 1496 1502 1508 1515 1521 1526 1532 1537 1543 1548 1553 1557 1561 1565 1569 1573 1576 1579 1582 1584 1587 1589 1592 1593 1596 1598 1599 1601 1602 1604 1604
1467 1468 1463 1467 1462 1465 1467 1468 1469 1474 1480 1486 1492 1499 1505 1510 1517 1524 1527 1535 1538 1544 1549 1554 1558 1561 1565 1569 1572 1575 1578 1580 1583 1584 1587 1589 1591 1593 1595 1597 1599 1599 1600
1472 1469 1468 1466 1471 1464 1469 1469 1470 1475 1478 1483 1488 1494 1501 1507 1513 1519 1524 1529 1535 1540 1544 1549 1553 1557 1560 1564 1568 1571 1574 1576 1579 1581 1583 1585 1587 1589 1590 1592 1594 1595 1596
1477 1474 1473 1470 1460 1472 1468 1470 1473 1476 1481 1476 1481 1488 1497 1502 1509 1515 1520 1525 1530 1534 1539 1543 1546 1551 1554 1558 1562 1565 1568 1571 1574 1577 1578 1580 1583 1584 1585 1587 1589 1590 1591
1481 1479 1478 1477 1475 1472 1474 1468 1477 1475 1471 1472 1482 1485 1494 1497 1508 1511 1515 1520 1525 1529 1532 1536 1540 1544 1548 1552 1556 1558 1562 1565 1568 1570 1573 1575 1577 1579 1580 1583 1583 1585 1586
1487 1484 1481 1479 1480 1488 1464 1475 1473 1486 1474 1484 1476 1477 1494 1498 1508 1508 1508 1514 1519 1523 1526 1529 1534 1538 1543 1547 1551 1554 1556 1559 1562 1564 1567 1570 1572 1574 1575 1576 1578 1580 1581
1491 1489 1487 1488 1491 1472 1473 1487 1468 1478 1475 1479 1479 1485 1485 1490 1501 1501 1504 1510 1514 1517 1521 1525 1529 1533 1537 1542 1546 1549 1551 1554 1556 1559 1561 1563 1566 1568 1570 1571 1572 1574 1576
1496 1494 1492 1488 1484 1482 1491 1471 1485 1469 1481 1484 1482 1484 1491 1492 1498 1499 1502 1506 1511 1514 1517 1521 1525 1529 1533 1537 1540 1543 1545 1548 1550 1553 1555 1557 1559 1562 1564 1565 1567 1569 1569
1500 1498 1496 1494 1490 1487 1487 1488 1486 1478 1486 1485 1481 1488 1486 1490 1501 1499 1501 1504 1508 1511 1515 1518 1521 1525 1529 1531 1533 1537 1539 1542 1544 1547 1549 1552 1553 1556 1558 1559 1560 1562 1563
1502 1500 1499 1497 1497 1496 1493 1491 1490 1485 1480 1488 1487 1489 1487 1488 1495 1497 1499 1504 1505 1508 1511 1515 1518 1521 1524 1526 1528 1531 1533 1535 1538 1541 1544 1546 1547 1550 1552 1553 1554 1555 1557
1502 1500 1499 1498 1497 1496 1496 1495 1491 1489 1489 1490 1488 1487 1490 1496 1495 1495 1499 1501 1502 1504 1507 1511 1514 1517 1519 1521 1523 1525 1527 1530 1532 1535 1538 1539 1542 1544 1547 1547 1548 1549 1550
1505 1502 1499 1499 1499 1497 1496 1496 1497 1497 1496 1493 1492 1491 1491 1491 1495 1491 1498 1496 1499 1500 1503 1506 1509 1512 1515 1515 1517 1519 1521 1524 1526 1529 1531 1533 1535 1538 1540 1541 1542 1541 1543
1505 1502 1500 1499 1499 1498 1496 1497 1497 1496 1495 1494 1494 1492 1493 1494 1493 1493 1495 1495 1497 1498 1500 1503 1506 1509 1510 1510 1511 1513 1516 1517 1520 1522 1525 1527 1529 1531 1533 1533 1534 1534 1537
1505 1504 1502 1502 1501 1498 1495 1496 1495 1494 1493 1493 1493 1494 1493 1492 1491 1493 1491 1492 1492 1493 1496 1498 1500 1503 1505 1506 1508 1508 1510 1511 1513 1515 1517 1519 1520 1522 1524 1525 1526 1528 1528
1502 1502 1500 1500 1500 1497 1496 1496 1494 1492 1491 1491 1491 1490 1489 1489 1488 1488 1488 1488 1489 1490 1492 1493 1495 1497 1500 1502 1503 1503 1505 1506 1508 1509 1510 1511 1513 1515 1515 1517 1518 1520 1520
1503 1502 1502 1500 1498 1496 1496 1494 1492 1491 1491 1491 1490 1489 1487 1486 1486 1486 1486 1487 1488 1488 1488 1489 1491 1492 1494 1497 1496 1498 1500 1501 1502 1502 1504 1505 1506 1507 1507 1508 1510 1511 1512
1503 1503 1502 1500 1498 1497 1496 1494 1493 1492 1491 1491 1489 1488 1487 1486 1485 1485 1485 1485 1485 1486 1486 1486 1486 1487 1488 1490 1490 1491 1493 1494 1495 1496 1497 1499 1500 1499 1500 1501 1502 1502 1503
1502 1502 1501 1500 1498 1497 1495 1493 1492 1491 1490 1490 1489 1487 1486 1485 1484 1483 1483 1483 1483 1483 1483 1482 1483 1483 1483 1483 1484 1485 1485 1486 1489 1489 1490 1492 1493 1493 1494 1494 1494 1494 1495